Weather History for Wahoo, NE

Change the Weather History Date:

Friday, April 18, 2014

  Actual Average Record
Temperature  
Mean Temperature 50 °F -  
Max Temperature 70 °F 63 °F 87 °F (1985)
Min Temperature 29 °F 39 °F 27 °F (1988)
Degree Days  
Heating Degree Days 16    
Moisture  
Dew Point 31 °F    
Average Humidity 50    
Maximum Humidity 84    
Minimum Humidity 25    
Precipitation  
Precipitation 0.00 in - - ()
Sea Level Pressure  
Sea Level Pressure 30.17 in    
Wind  
Wind Speed 9 mph (SSE)    
Max Wind Speed 26 mph    
Max Gust Speed 33 mph    
Visibility 9 miles    
Events      
Averages and records for this station are not official NWS values.
T = Trace of Precipitation, MM = Missing Value Source: NWS Daily Summary

Daily Weather History Graph

Daily Weather History Graph

Search for Another Location

Airport:

Trip Planner

Search our weather history database for the weather conditions in past years. The results will help you decide how hot, cold, wet, or windy it might be!

Date:

Astronomy

Apr. 18, 2014 Rise Set
Actual Time 6:42 AM CDT 8:09 PM CDT
Civil Twilight 6:13 AM CDT 8:38 PM CDT
Nautical Twilight 5:38 AM CDT 9:13 PM CDT
Astronomical Twilight 5:02 AM CDT 9:50 PM CDT
Moon 11:57 PM CDT (4/18) 9:04 AM CDT (4/18)
Length of Visible Light 14h 25m
Length of Day
13h 27m
Waning Gibbous, 87% of the Moon is Illuminated
Apr 18
Waning Gibbous
Apr 22
Last Quarter
Apr 29
New
May 6
First Quarter
May 14
Full

Hourly Weather History & Observations

Time (CDT) Temp. Windchill Dew Point Humidity Pressure Visibility Wind Dir Wind Speed Gust Speed Precip Events Conditions
12:15 AM 37.4 °F - 23.5 °F 57% 30.26 in 10.0 mi Calm Calm - N/A   Clear
12:35 AM 36.3 °F - 23.7 °F 60% 30.26 in 10.0 mi Calm Calm - N/A   Clear
12:55 AM 35.4 °F - 23.7 °F 62% 30.26 in 10.0 mi Calm Calm - N/A   Clear
1:15 AM 36.5 °F - 23.9 °F 60% 30.26 in 10.0 mi Calm Calm - N/A   Clear
1:35 AM 35.2 °F 32.4 °F 24.3 °F 64% 30.25 in 10.0 mi SSE 3.5 mph - N/A   Clear
1:55 AM 35.1 °F 32.2 °F 24.1 °F 64% 30.25 in 10.0 mi SSE 3.5 mph - N/A   Clear
2:15 AM 34.2 °F 31.2 °F 24.3 °F 67% 30.24 in 10.0 mi SE 3.5 mph - N/A   Clear
2:35 AM 34.0 °F - 24.6 °F 69% 30.24 in 10.0 mi Calm Calm - N/A   Clear
2:55 AM 33.3 °F - 24.4 °F 70% 30.24 in 10.0 mi Calm Calm - N/A   Clear
3:15 AM 32.4 °F - 23.9 °F 71% 30.24 in 10.0 mi Calm Calm - N/A   Clear
3:35 AM 32.0 °F - 24.3 °F 73% 30.24 in 10.0 mi Calm Calm - N/A   Clear
3:55 AM 32.5 °F 29.3 °F 24.4 °F 72% 30.24 in 10.0 mi SE 3.5 mph - N/A   Clear
4:15 AM 32.0 °F - 24.1 °F 73% 30.24 in 10.0 mi Calm Calm - N/A   Clear
4:35 AM 31.6 °F 28.3 °F 24.3 °F 74% 30.24 in 10.0 mi ESE 3.5 mph - N/A   Clear
4:55 AM 30.0 °F 25.2 °F 23.9 °F 78% 30.24 in 10.0 mi ESE 4.6 mph - N/A   Clear
5:35 AM 30.6 °F 27.1 °F 24.1 °F 77% 30.24 in 10.0 mi SSE 3.5 mph - N/A   Clear
5:55 AM 30.7 °F - 24.3 °F 77% 30.24 in 7.0 mi Calm Calm - N/A   Clear
6:15 AM 30.7 °F 27.3 °F 24.3 °F 77% 30.25 in 7.0 mi SSE 3.5 mph - N/A   Clear
6:35 AM 30.6 °F - 24.8 °F 79% 30.25 in 7.0 mi Calm Calm - N/A   Clear
6:55 AM 30.0 °F - 24.3 °F 79% 30.26 in 5.0 mi Calm Calm - N/A   Haze
7:15 AM 29.7 °F 24.7 °F 24.6 °F 81% 30.25 in 5.0 mi SE 4.6 mph - N/A   Haze
7:35 AM 31.5 °F 26.8 °F 27.0 °F 83% 30.25 in 4.0 mi ESE 4.6 mph - N/A   Clear
7:55 AM 34.3 °F 30.2 °F 29.8 °F 84% 30.25 in 4.0 mi SE 4.6 mph - N/A   Clear
8:15 AM 37.6 °F 33.1 °F 31.3 °F 78% 30.25 in 3.0 mi SSE 5.8 mph - N/A   Haze
8:35 AM 39.9 °F 34.5 °F 32.0 °F 73% 30.25 in 3.0 mi SSE 8.1 mph - N/A   Haze
8:55 AM 42.6 °F 36.8 °F 33.1 °F 69% 30.25 in 4.0 mi SSE 10.4 mph - N/A   Haze
9:15 AM 45.9 °F 39.7 °F 34.3 °F 64% 30.25 in 4.0 mi South 13.8 mph - N/A   Haze
9:35 AM 49.5 °F - 33.6 °F 54% 30.24 in 7.0 mi South 15.0 mph - N/A   Clear
9:55 AM 51.1 °F - 33.4 °F 51% 30.24 in 5.0 mi South 15.0 mph 18.4 mph N/A   Haze
10:15 AM 53.6 °F - 32.9 °F 45% 30.24 in 4.0 mi South 17.3 mph - N/A   Haze
10:35 AM 54.7 °F - 32.4 °F 43% 30.24 in 5.0 mi SSE 17.3 mph 23.0 mph N/A   Haze
11:15 AM 56.8 °F - 31.1 °F 38% 30.24 in 7.0 mi South 18.4 mph - N/A   Clear
11:35 AM 57.6 °F - 31.6 °F 37% 30.23 in 7.0 mi SSE 16.1 mph 26.5 mph N/A   Clear
11:55 AM 58.6 °F - 30.9 °F 35% 30.22 in 7.0 mi SSE 20.7 mph 27.6 mph N/A   Clear
12:15 PM 59.2 °F - 30.6 °F 34% 30.22 in 10.0 mi SSE 18.4 mph 26.5 mph N/A   Clear
12:35 PM 61.0 °F - 31.1 °F 32% 30.21 in 10.0 mi SSE 20.7 mph 25.3 mph N/A   Clear
12:55 PM 62.4 °F - 31.3 °F 31% 30.20 in 10.0 mi SSE 21.9 mph 32.2 mph N/A   Clear
1:15 PM 63.0 °F - 31.6 °F 31% 30.19 in 10.0 mi SSE 18.4 mph 27.6 mph N/A   Clear
1:35 PM 64.2 °F - 31.8 °F 30% 30.17 in 10.0 mi SSE 18.4 mph 26.5 mph N/A   Clear
1:55 PM 64.8 °F - 32.5 °F 30% 30.17 in 10.0 mi South 18.4 mph 31.1 mph N/A   Clear
2:15 PM 65.7 °F - 32.5 °F 29% 30.16 in 10.0 mi SSE 19.6 mph 28.8 mph N/A   Clear
2:35 PM 66.4 °F - 32.9 °F 29% 30.15 in 10.0 mi South 21.9 mph 27.6 mph N/A   Clear
2:55 PM 67.1 °F - 32.9 °F 28% 30.14 in 10.0 mi South 23.0 mph 28.8 mph N/A   Clear
3:15 PM 68.4 °F - 33.3 °F 27% 30.12 in 10.0 mi South 19.6 mph 29.9 mph N/A   Clear
3:35 PM 69.1 °F - 33.3 °F 27% 30.11 in 10.0 mi SSE 25.3 mph 29.9 mph N/A   Clear
3:55 PM 70.0 °F - 33.3 °F 26% 30.10 in 10.0 mi South 21.9 mph 31.1 mph N/A   Clear
4:15 PM 70.5 °F - 33.4 °F 26% 30.09 in 10.0 mi South 25.3 mph 32.2 mph N/A   Clear
4:35 PM 70.5 °F - 33.1 °F 25% 30.08 in 10.0 mi SSE 25.3 mph 32.2 mph N/A   Clear
4:55 PM 70.7 °F - 33.3 °F 25% 30.07 in 10.0 mi SSE 26.5 mph 33.4 mph N/A   Clear
5:15 PM 70.3 °F - 33.3 °F 25% 30.07 in 10.0 mi South 23.0 mph 33.4 mph N/A   Clear
5:35 PM 70.5 °F - 33.6 °F 26% 30.07 in 10.0 mi South 23.0 mph 27.6 mph N/A   Clear
5:55 PM 69.8 °F - 33.6 °F 26% 30.07 in 10.0 mi South 24.2 mph 31.1 mph N/A   Clear
6:15 PM 68.9 °F - 33.6 °F 27% 30.07 in 10.0 mi South 25.3 mph 31.1 mph N/A   Clear
6:35 PM 68.0 °F - 34.0 °F 28% 30.06 in 10.0 mi SSE 26.5 mph 32.2 mph N/A   Clear
6:55 PM 66.2 °F - 34.0 °F 30% 30.05 in 10.0 mi SSE 21.9 mph 28.8 mph N/A   Clear
7:15 PM 65.3 °F - 34.7 °F 32% 30.06 in 10.0 mi SSE 18.4 mph 27.6 mph N/A   Clear
7:35 PM 63.5 °F - 35.6 °F 35% 30.06 in 10.0 mi SSE 13.8 mph - N/A   Clear
7:55 PM 62.6 °F - 36.0 °F 37% 30.05 in 10.0 mi SSE 15.0 mph - N/A   Clear
8:15 PM 61.7 °F - 36.3 °F 39% 30.05 in 10.0 mi SSE 16.1 mph - N/A   Clear
8:35 PM 61.5 °F - 36.5 °F 39% 30.05 in 10.0 mi SSE 15.0 mph - N/A   Clear
8:55 PM 60.3 °F - 36.7 °F 41% 30.06 in 10.0 mi SSE 16.1 mph - N/A   Clear
9:15 PM 59.5 °F - 37.0 °F 43% 30.07 in 10.0 mi SSE 15.0 mph - N/A   Clear
9:35 PM 58.6 °F - 37.4 °F 45% 30.07 in 10.0 mi SSE 15.0 mph - N/A   Clear
9:55 PM 58.6 °F - 37.8 °F 46% 30.07 in 10.0 mi SSE 16.1 mph - N/A   Clear
10:15 PM 58.5 °F - 37.9 °F 46% 30.07 in 10.0 mi SSE 16.1 mph 23.0 mph N/A   Clear
10:35 PM 57.4 °F - 38.3 °F 49% 30.07 in 10.0 mi SSE 16.1 mph - N/A   Clear
10:55 PM 56.7 °F - 38.3 °F 50% 30.06 in 10.0 mi SSE 18.4 mph - N/A   Clear
11:15 PM 56.7 °F - 38.5 °F 51% 30.07 in 10.0 mi SSE 18.4 mph 24.2 mph N/A   Clear
11:35 PM 56.1 °F - 38.5 °F 52% 30.07 in 10.0 mi South 17.3 mph - N/A   Clear
11:55 PM 54.9 °F - 38.7 °F 54% 30.07 in 10.0 mi South 16.1 mph - N/A   Clear